"Period start","avg(HW err(1)/warn(2) (#))","avg(Visibility (m))","avg(Weather code (#))","avg(Precip intensity (mm/h))","min(HW err(1)/warn(2) (#))","max(HW err(1)/warn(2) (#))","std(HW err(1)/warn(2) (#))","med(HW err(1)/warn(2) (#))","min(Visibility (m))","max(Visibility (m))","std(Visibility (m))","med(Visibility (m))","min(Weather code (#))","max(Weather code (#))","std(Weather code (#))","med(Weather code (#))","min(Precip intensity (mm/h))","max(Precip intensity (mm/h))","std(Precip intensity (mm/h))","med(Precip intensity (mm/h))"
2014-09-22 00:00:00,2,43382,0,0.00,2,2,0,2,35565,50000,5542,44078,0,0,0,0,0.00,0.00,0.00,0.00
2014-09-22 00:10:00,2,45339,0,0.00,2,2,0,2,35087,50000,4815,46542,0,0,0,0,0.00,0.00,0.00,0.00
2014-09-22 00:20:00,2,40188,0,0.00,2,2,0,2,28935,50000,5844,40212,0,0,0,0,0.00,0.00,0.00,0.00
2014-09-22 00:30:00,2,34804,0,0.00,2,2,0,2,26342,50000,7379,32481,0,0,0,0,0.00,0.00,0.00,0.00
2014-09-22 00:40:00,2,36733,0,0.00,2,2,0,2,21604,50000,7643,36120,0,0,0,0,0.00,0.00,0.00,0.00
2014-09-22 00:50:00,2,37163,0,0.00,2,2,0,2,27303,49185,6736,35522,0,0,0,0,0.00,0.00,0.00,0.00
2014-09-22 01:00:00,2,39114,0,0.00,2,2,0,2,24078,50000,7474,39789,0,0,0,0,0.00,0.00,0.00,0.00
2014-09-22 01:10:00,2,42957,0,0.00,2,2,0,2,29380,50000,6315,42353,0,0,0,0,0.00,0.00,0.00,0.00
2014-09-22 01:20:00,2,48378,0,0.00,2,2,0,2,44105,50000,2485,50000,0,0,0,0,0.00,0.00,0.00,0.00
2014-09-22 01:30:00,2,49516,0,0.00,2,2,0,2,47233,50000,969,50000,0,0,0,0,0.00,0.00,0.00,0.00
2014-09-22 01:40:00,2,50000,0,0.00,2,2,0,2,50000,50000,0,50000,0,0,0,0,0.00,0.00,0.00,0.00
2014-09-22 01:50:00,2,49740,0,0.00,2,2,0,2,48376,50000,539,50000,0,0,0,0,0.00,0.00,0.00,0.00
2014-09-22 02:00:00,2,49724,0,0.00,2,2,0,2,48217,50000,562,50000,0,0,0,0,0.00,0.00,0.00,0.00
2014-09-22 02:10:00,2,50000,0,0.00,2,2,0,2,50000,50000,0,50000,0,0,0,0,0.00,0.00,0.00,0.00
2014-09-22 02:20:00,2,48567,0,0.00,2,2,0,2,45058,50000,1920,49830,0,0,0,0,0.00,0.00,0.00,0.00
2014-09-22 02:30:00,2,50000,0,0.00,2,2,0,2,50000,50000,0,50000,0,0,0,0,0.00,0.00,0.00,0.00
2014-09-22 02:40:00,2,49888,0,0.00,2,2,0,2,48879,50000,336,50000,0,0,0,0,0.00,0.00,0.00,0.00
2014-09-22 02:50:00,2,49750,0,0.00,2,2,0,2,48084,50000,582,50000,0,0,0,0,0.00,0.00,0.00,0.00
2014-09-22 03:00:00,2,49296,0,0.00,2,2,0,2,46101,50000,1335,50000,0,0,0,0,0.00,0.00,0.00,0.00
2014-09-22 03:10:00,2,48006,0,0.00,2,2,0,2,42410,50000,2651,50000,0,0,0,0,0.00,0.00,0.00,0.00
2014-09-22 03:20:00,2,44105,8,0.02,2,2,0,2,28620,50000,7219,47422,0,41,16,0,0.00,0.20,0.06,0.00
2014-09-22 03:30:00,2,42666,46,0.09,2,2,0,2,30296,50000,6102,44724,41,51,5,46,0.00,0.20,0.06,0.08
2014-09-22 03:40:00,2,46173,21,0.00,2,2,0,2,37878,50000,4923,48887,0,61,27,0,0.00,0.00,0.00,0.00
2014-09-22 03:50:00,2,49489,0,0.00,2,2,0,2,48051,50000,789,50000,0,0,0,0,0.00,0.00,0.00,0.00
2014-09-22 04:00:00,2,43997,0,0.00,2,2,0,2,33466,50000,5629,45946,0,0,0,0,0.00,0.00,0.00,0.00
2014-09-22 04:10:00,2,48852,0,0.00,2,2,0,2,45354,50000,1428,49352,0,0,0,0,0.00,0.00,0.00,0.00
2014-09-22 04:20:00,2,49596,0,0.00,2,2,0,2,48318,50000,559,49948,0,0,0,0,0.00,0.00,0.00,0.00
2014-09-22 04:30:00,2,48188,0,0.00,2,2,0,2,40517,50000,3098,50000,0,0,0,0,0.00,0.00,0.00,0.00
2014-09-22 04:40:00,2,48720,0,0.00,2,2,0,2,44016,50000,1849,49570,0,0,0,0,0.00,0.00,0.00,0.00
2014-09-22 04:50:00,2,48359,0,0.00,2,2,0,2,43270,50000,2455,50000,0,0,0,0,0.00,0.00,0.00,0.00
2014-09-22 05:00:00,2,48488,0,0.00,2,2,0,2,44899,50000,1734,49074,0,0,0,0,0.00,0.00,0.00,0.00
2014-09-22 05:10:00,2,47164,0,0.00,2,2,0,2,41601,50000,2889,47956,0,0,0,0,0.00,0.00,0.00,0.00
2014-09-22 05:20:00,2,48146,0,0.00,2,2,0,2,41820,50000,2531,49518,0,0,0,0,0.00,0.00,0.00,0.00
2014-09-22 05:30:00,2,49630,0,0.00,2,2,0,2,47583,50000,783,50000,0,0,0,0,0.00,0.00,0.00,0.00
2014-09-22 05:40:00,2,46474,0,0.00,2,2,0,2,39032,50000,4148,48954,0,0,0,0,0.00,0.00,0.00,0.00
2014-09-22 05:50:00,2,49425,0,0.00,2,2,0,2,46160,50000,1159,50000,0,0,0,0,0.00,0.00,0.00,0.00
2014-09-22 06:00:00,2,49781,0,0.00,2,2,0,2,47811,50000,657,50000,0,0,0,0,0.00,0.00,0.00,0.00
2014-09-22 06:10:00,2,47307,0,0.00,2,2,0,2,37468,50000,3674,48490,0,0,0,0,0.00,0.00,0.00,0.00
2014-09-22 06:20:00,2,49931,0,0.00,2,2,0,2,49312,50000,206,50000,0,0,0,0,0.00,0.00,0.00,0.00
2014-09-22 06:30:00,2,49386,0,0.00,2,2,0,2,47490,50000,958,50000,0,0,0,0,0.00,0.00,0.00,0.00
2014-09-22 06:40:00,2,49892,0,0.00,2,2,0,2,48918,50000,325,50000,0,0,0,0,0.00,0.00,0.00,0.00
2014-09-22 06:50:00,2,49461,0,0.00,2,2,0,2,44608,50000,1618,50000,0,0,0,0,0.00,0.00,0.00,0.00
2014-09-22 07:00:00,2,50000,0,0.00,2,2,0,2,50000,50000,0,50000,0,0,0,0,0.00,0.00,0.00,0.00
2014-09-22 07:10:00,2,50000,0,0.00,2,2,0,2,50000,50000,0,50000,0,0,0,0,0.00,0.00,0.00,0.00
2014-09-22 07:20:00,2,50000,0,0.00,2,2,0,2,50000,50000,0,50000,0,0,0,0,0.00,0.00,0.00,0.00
2014-09-22 07:30:00,2,50000,0,0.00,2,2,0,2,50000,50000,0,50000,0,0,0,0,0.00,0.00,0.00,0.00
2014-09-22 07:40:00,2,49268,0,0.00,2,2,0,2,43256,50000,2011,50000,0,0,0,0,0.00,0.00,0.00,0.00
2014-09-22 07:50:00,2,50000,0,0.00,2,2,0,2,50000,50000,0,50000,0,0,0,0,0.00,0.00,0.00,0.00
2014-09-22 08:00:00,2,49839,0,0.00,2,2,0,2,48391,50000,483,50000,0,0,0,0,0.00,0.00,0.00,0.00
2014-09-22 08:10:00,2,47108,0,0.00,2,2,0,2,42130,50000,3065,48368,0,0,0,0,0.00,0.00,0.00,0.00
2014-09-22 08:20:00,2,49258,0,0.00,2,2,0,2,44832,50000,1535,50000,0,0,0,0,0.00,0.00,0.00,0.00
2014-09-22 08:30:00,2,49962,0,0.00,2,2,0,2,49751,50000,81,50000,0,0,0,0,0.00,0.00,0.00,0.00
2014-09-22 08:40:00,2,49173,0,0.00,2,2,0,2,44768,50000,1564,50000,0,0,0,0,0.00,0.00,0.00,0.00
2014-09-22 08:50:00,2,49251,0,0.00,2,2,0,2,44324,50000,1682,50000,0,0,0,0,0.00,0.00,0.00,0.00
2014-09-22 09:00:00,2,49233,0,0.00,2,2,0,2,46530,50000,1250,50000,0,0,0,0,0.00,0.00,0.00,0.00
2014-09-22 09:10:00,2,49910,0,0.00,2,2,0,2,49105,50000,268,50000,0,0,0,0,0.00,0.00,0.00,0.00
2014-09-22 09:20:00,2,49715,0,0.00,2,2,0,2,48059,50000,583,50000,0,0,0,0,0.00,0.00,0.00,0.00
2014-09-22 09:30:00,2,49899,0,0.00,2,2,0,2,49352,50000,212,50000,0,0,0,0,0.00,0.00,0.00,0.00
2014-09-22 09:40:00,2,49738,0,0.00,2,2,0,2,48496,50000,469,50000,0,0,0,0,0.00,0.00,0.00,0.00
2014-09-22 09:50:00,2,49555,0,0.00,2,2,0,2,47192,50000,866,50000,0,0,0,0,0.00,0.00,0.00,0.00
2014-09-22 10:00:00,2,49688,0,0.00,2,2,0,2,47329,50000,798,50000,0,0,0,0,0.00,0.00,0.00,0.00
2014-09-22 10:10:00,2,49878,0,0.00,2,2,0,2,49030,50000,293,50000,0,0,0,0,0.00,0.00,0.00,0.00
2014-09-22 10:20:00,2,50000,0,0.00,2,2,0,2,50000,50000,0,50000,0,0,0,0,0.00,0.00,0.00,0.00
2014-09-22 10:30:00,2,49941,0,0.00,2,2,0,2,49471,50000,166,50000,0,0,0,0,0.00,0.00,0.00,0.00
2014-09-22 10:40:00,2,49862,0,0.00,2,2,0,2,49272,50000,277,50000,0,0,0,0,0.00,0.00,0.00,0.00
2014-09-22 10:50:00,2,49966,0,0.00,2,2,0,2,49625,50000,108,50000,0,0,0,0,0.00,0.00,0.00,0.00
2014-09-22 11:00:00,2,50000,0,0.00,2,2,0,2,50000,50000,0,50000,0,0,0,0,0.00,0.00,0.00,0.00
2014-09-22 11:10:00,2,49824,0,0.00,2,2,0,2,48388,50000,481,50000,0,0,0,0,0.00,0.00,0.00,0.00
2014-09-22 11:20:00,2,49958,0,0.00,2,2,0,2,49583,50000,125,50000,0,0,0,0,0.00,0.00,0.00,0.00
2014-09-22 11:30:00,2,49594,0,0.00,2,2,0,2,46735,50000,982,50000,0,0,0,0,0.00,0.00,0.00,0.00
2014-09-22 11:40:00,2,49930,0,0.00,2,2,0,2,49304,50000,209,50000,0,0,0,0,0.00,0.00,0.00,0.00
2014-09-22 11:50:00,2,49755,0,0.00,2,2,0,2,47809,50000,653,50000,0,0,0,0,0.00,0.00,0.00,0.00
2014-09-22 12:00:00,2,49891,0,0.00,2,2,0,2,49052,50000,283,50000,0,0,0,0,0.00,0.00,0.00,0.00
2014-09-22 12:10:00,2,48814,0,0.00,2,2,0,2,44089,50000,1965,50000,0,0,0,0,0.00,0.00,0.00,0.00
2014-09-22 12:20:00,2,49504,0,0.00,2,2,0,2,47886,50000,699,49950,0,0,0,0,0.00,0.00,0.00,0.00
2014-09-22 12:30:00,2,50000,0,0.00,2,2,0,2,50000,50000,0,50000,0,0,0,0,0.00,0.00,0.00,0.00
2014-09-22 12:40:00,2,50000,0,0.00,2,2,0,2,50000,50000,0,50000,0,0,0,0,0.00,0.00,0.00,0.00
2014-09-22 12:50:00,2,49353,0,0.00,2,2,0,2,44298,50000,1701,50000,0,0,0,0,0.00,0.00,0.00,0.00
2014-09-22 13:00:00,2,48852,0,0.00,2,2,0,2,46880,50000,1225,49312,0,0,0,0,0.00,0.00,0.00,0.00
2014-09-22 13:10:00,2,49627,0,0.00,2,2,0,2,46270,50000,1119,50000,0,0,0,0,0.00,0.00,0.00,0.00
2014-09-22 13:20:00,2,47110,0,0.00,2,2,0,2,40616,50000,2882,46743,0,0,0,0,0.00,0.00,0.00,0.00
2014-09-22 13:30:00,2,49167,0,0.00,2,2,0,2,44844,50000,1619,50000,0,0,0,0,0.00,0.00,0.00,0.00
2014-09-22 13:40:00,2,48342,0,0.00,2,2,0,2,41393,50000,2551,49644,0,0,0,0,0.00,0.00,0.00,0.00
2014-09-22 13:50:00,2,49070,0,0.00,2,2,0,2,46213,50000,1231,49688,0,0,0,0,0.00,0.00,0.00,0.00
2014-09-22 14:00:00,2,50000,0,0.00,2,2,0,2,50000,50000,0,50000,0,0,0,0,0.00,0.00,0.00,0.00
2014-09-22 14:10:00,2,49965,0,0.00,2,2,0,2,49649,50000,105,50000,0,0,0,0,0.00,0.00,0.00,0.00
2014-09-22 14:20:00,2,49362,0,0.00,2,2,0,2,47060,50000,1126,50000,0,0,0,0,0.00,0.00,0.00,0.00
2014-09-22 14:30:00,2,49845,0,0.00,2,2,0,2,48949,50000,333,50000,0,0,0,0,0.00,0.00,0.00,0.00
2014-09-22 14:40:00,2,48910,0,0.00,2,2,0,2,45790,50000,1589,50000,0,0,0,0,0.00,0.00,0.00,0.00
2014-09-22 14:50:00,2,49872,0,0.00,2,2,0,2,48906,50000,327,50000,0,0,0,0,0.00,0.00,0.00,0.00
2014-09-22 15:00:00,2,49562,0,0.00,2,2,0,2,47096,50000,922,50000,0,0,0,0,0.00,0.00,0.00,0.00
2014-09-22 15:10:00,2,49840,0,0.00,2,2,0,2,48405,50000,478,50000,0,0,0,0,0.00,0.00,0.00,0.00
2014-09-22 15:20:00,2,49484,0,0.00,2,2,0,2,47413,50000,1032,50000,0,0,0,0,0.00,0.00,0.00,0.00
2014-09-22 15:30:00,2,49279,0,0.00,2,2,0,2,45880,50000,1287,50000,0,0,0,0,0.00,0.00,0.00,0.00
2014-09-22 15:40:00,2,47052,0,0.00,2,2,0,2,40490,50000,3002,47967,0,0,0,0,0.00,0.00,0.00,0.00
2014-09-22 15:50:00,2,48500,0,0.00,2,2,0,2,43647,50000,2286,50000,0,0,0,0,0.00,0.00,0.00,0.00
2014-09-22 16:00:00,2,48331,0,0.00,2,2,0,2,44721,50000,1524,48422,0,0,0,0,0.00,0.00,0.00,0.00
2014-09-22 16:10:00,2,49862,0,0.00,2,2,0,2,49198,50000,251,50000,0,0,0,0,0.00,0.00,0.00,0.00
2014-09-22 16:20:00,2,49404,0,0.00,2,2,0,2,47827,50000,898,50000,0,0,0,0,0.00,0.00,0.00,0.00
2014-09-22 16:30:00,2,49557,0,0.00,2,2,0,2,48354,50000,570,49833,0,0,0,0,0.00,0.00,0.00,0.00
2014-09-22 16:40:00,2,48622,0,0.00,2,2,0,2,43178,50000,2135,49617,0,0,0,0,0.00,0.00,0.00,0.00
2014-09-22 16:50:00,2,49317,0,0.00,2,2,0,2,46997,50000,967,50000,0,0,0,0,0.00,0.00,0.00,0.00
2014-09-22 17:00:00,2,49261,0,0.00,2,2,0,2,45424,50000,1449,50000,0,0,0,0,0.00,0.00,0.00,0.00
2014-09-22 17:10:00,2,48623,0,0.00,2,2,0,2,46320,50000,1335,48880,0,0,0,0,0.00,0.00,0.00,0.00
2014-09-22 17:20:00,2,45798,0,0.00,2,2,0,2,40245,50000,3071,46813,0,0,0,0,0.00,0.00,0.00,0.00
2014-09-22 17:30:00,2,48039,0,0.00,2,2,0,2,42259,50000,2526,49432,0,0,0,0,0.00,0.00,0.00,0.00
2014-09-22 17:40:00,2,47199,0,0.00,2,2,0,2,43215,50000,2308,47002,0,0,0,0,0.00,0.00,0.00,0.00
2014-09-22 17:50:00,2,49464,0,0.00,2,2,0,2,46769,50000,1101,50000,0,0,0,0,0.00,0.00,0.00,0.00
2014-09-22 18:00:00,2,44981,0,0.00,2,2,0,2,39278,50000,3552,43708,0,0,0,0,0.00,0.00,0.00,0.00
2014-09-22 18:10:00,2,48268,0,0.00,2,2,0,2,44095,50000,2449,49910,0,0,0,0,0.00,0.00,0.00,0.00
2014-09-22 18:20:00,2,48256,0,0.00,2,2,0,2,41125,50000,3089,50000,0,0,0,0,0.00,0.00,0.00,0.00
2014-09-22 18:30:00,2,48017,0,0.00,2,2,0,2,43717,50000,2047,48584,0,0,0,0,0.00,0.00,0.00,0.00
2014-09-22 18:40:00,2,50000,0,0.00,2,2,0,2,50000,50000,0,50000,0,0,0,0,0.00,0.00,0.00,0.00
2014-09-22 18:50:00,2,49620,0,0.00,2,2,0,2,47979,50000,653,50000,0,0,0,0,0.00,0.00,0.00,0.00
2014-09-22 19:00:00,2,44201,0,0.00,2,2,0,2,34433,50000,5737,45510,0,0,0,0,0.00,0.00,0.00,0.00
2014-09-22 19:10:00,2,49022,0,0.00,2,2,0,2,41616,50000,2497,50000,0,0,0,0,0.00,0.00,0.00,0.00
2014-09-22 19:20:00,2,43206,0,0.00,2,2,0,2,36575,50000,4696,41886,0,0,0,0,0.00,0.00,0.00,0.00
2014-09-22 19:30:00,2,47846,0,0.00,2,2,0,2,44081,50000,2077,47710,0,0,0,0,0.00,0.00,0.00,0.00
2014-09-22 19:40:00,2,49093,0,0.00,2,2,0,2,47080,50000,1143,49978,0,0,0,0,0.00,0.00,0.00,0.00
2014-09-22 19:50:00,2,49023,0,0.00,2,2,0,2,46443,50000,1324,49921,0,0,0,0,0.00,0.00,0.00,0.00
2014-09-22 20:00:00,2,48251,0,0.00,2,2,0,2,42539,50000,2228,49028,0,0,0,0,0.00,0.00,0.00,0.00
2014-09-22 20:10:00,2,48247,0,0.00,2,2,0,2,44729,50000,1675,48332,0,0,0,0,0.00,0.00,0.00,0.00
2014-09-22 20:20:00,2,49286,0,0.00,2,2,0,2,46459,50000,1189,50000,0,0,0,0,0.00,0.00,0.00,0.00
2014-09-22 20:30:00,2,48844,0,0.00,2,2,0,2,45943,50000,1498,49994,0,0,0,0,0.00,0.00,0.00,0.00
2014-09-22 20:40:00,2,48629,0,0.00,2,2,0,2,44654,50000,1753,49232,0,0,0,0,0.00,0.00,0.00,0.00
2014-09-22 20:50:00,2,45998,0,0.00,2,2,0,2,40684,50000,3117,46936,0,0,0,0,0.00,0.00,0.00,0.00
2014-09-22 21:00:00,2,35699,0,0.00,2,2,0,2,18236,50000,9729,38651,0,0,0,0,0.00,0.00,0.00,0.00
2014-09-22 21:10:00,2,18138,0,0.00,2,2,0,2,13828,22115,2951,18876,0,0,0,0,0.00,0.00,0.00,0.00
2014-09-22 21:20:00,2,26814,0,0.00,2,2,0,2,20354,37426,4673,26159,0,0,0,0,0.00,0.00,0.00,0.00
2014-09-22 21:30:00,2,15680,33,0.00,2,2,0,2,13171,18920,1575,15587,0,41,16,41,0.00,0.00,0.00,0.00
2014-09-22 21:40:00,2,28123,33,0.00,2,2,0,2,15661,48953,11073,25088,0,41,16,41,0.00,0.00,0.00,0.00
2014-09-22 21:50:00,2,27184,4,0.00,2,2,0,2,9656,48603,11226,29554,0,41,12,0,0.00,0.00,0.00,0.00
2014-09-22 22:00:00,2,4708,62,0.22,2,2,0,2,4159,5481,386,4550,41,71,14,71,0.10,0.45,0.10,0.17
2014-09-22 22:10:00,2,6388,73,0.30,2,2,0,2,4468,9139,1287,6572,71,77,3,71,0.05,0.70,0.18,0.28
2014-09-22 22:20:00,2,17119,21,0.01,2,2,0,2,8821,26753,5858,17693,0,71,33,0,0.00,0.05,0.02,0.00
2014-09-22 22:30:00,2,22593,28,0.00,2,2,0,2,17631,25934,2947,23566,0,71,35,0,0.00,0.00,0.00,0.00
2014-09-22 22:40:00,2,29122,38,0.00,2,2,0,2,22341,35910,3888,28482,0,77,38,38,0.00,0.00,0.00,0.00
2014-09-22 22:50:00,2,37722,0,0.00,2,2,0,2,30220,46601,6077,35726,0,0,0,0,0.00,0.00,0.00,0.00
2014-09-22 23:00:00,2,48765,0,0.00,2,2,0,2,45656,50000,1605,49394,0,0,0,0,0.00,0.00,0.00,0.00
2014-09-22 23:10:00,2,48757,0,0.00,2,2,0,2,43629,50000,2042,50000,0,0,0,0,0.00,0.00,0.00,0.00
2014-09-22 23:20:00,2,49729,0,0.00,2,2,0,2,48599,50000,480,50000,0,0,0,0,0.00,0.00,0.00,0.00
2014-09-22 23:30:00,2,48368,0,0.00,2,2,0,2,42215,50000,2566,50000,0,0,0,0,0.00,0.00,0.00,0.00
2014-09-22 23:40:00,2,49375,0,0.00,2,2,0,2,44133,50000,1750,50000,0,0,0,0,0.00,0.00,0.00,0.00
2014-09-22 23:50:00,2,48593,0,0.00,2,2,0,2,42886,50000,2139,49810,0,0,0,0,0.00,0.00,0.00,0.00
